Location: Chuathbaluk
(61.5726°N, 159.2454°W)
Time: 12:31:44
(UTC+00:00)

N. Korean satellite - Pass Details

Date: 27 October 2020
Orbit: 453 x 503 km, 97.2° (Epoch: 04 December)

Event Time Altitude Azimuth Distance (km) Brightness Sun altitude
Rises 03:30:15 0° 182° (S) 2,544 10.5 -5.4°
Reaches altitude 10° 03:32:25 10° 191° (S) 1,659 9.7 -5.7°
Maximum altitude 03:35:47 39° 262° (W) 726 8.2 -6.1°
Drops below altitude 10° 03:39:07 10° 333° (NNW) 1,644 9.4 -6.5°
Sets 03:41:16 0° 341° (NNW) 2,517 10.3 -6.7°
